D3544 EDFH-

Flight info

Callsign D3544
Flight time N/A
Altitude
Route
Aircraft ASK21

Departure

Time 2026-05-05 17:45
Airport Frankfurt-Hahn Airport (EDFH)

Arrival

Time N/A
Airport -
Time Latitude Longitude Altitude Speed Heading
2026-05-05 17:45 49.94328 7.25848 1829 ft 96 kts 30°
2026-05-05 17:45 49.94921 7.26422 2072 ft 105 kts 32°
2026-05-05 17:45 49.95538 7.27064 2370 ft 107 kts 33°
2026-05-05 17:45 49.96156 7.27699 2701 ft 106 kts 33°
2026-05-05 17:46 49.96759 7.28325 3032 ft 103 kts 34°
2026-05-05 17:46 49.97355 7.28906 3359 ft 100 kts 21°
2026-05-05 17:46 49.97961 7.28669 3620 ft 91 kts 312°
2026-05-05 17:46 49.98043 7.27818 3826 ft 74 kts 242°
2026-05-05 17:47 49.97706 7.27228 3762 ft 77 kts 221°
2026-05-05 17:47 49.97260 7.26705 3668 ft 79 kts 215°
2026-05-05 17:47 49.96810 7.26230 3613 ft 77 kts 214°
2026-05-05 17:47 49.96354 7.25749 3500 ft 83 kts 215°
2026-05-05 17:48 49.95896 7.25282 3478 ft 76 kts 212°
2026-05-05 17:48 49.95433 7.24856 3361 ft 82 kts 211°
2026-05-05 17:48 49.94935 7.24421 3311 ft 78 kts 210°
2026-05-05 17:48 49.94456 7.24015 3179 ft 87 kts 209°
2026-05-05 17:49 49.93814 7.23935 2998 ft 95 kts 159°
2026-05-05 17:49 49.93610 7.24621 2523 ft 97 kts 47°
2026-05-05 17:49 49.94341 7.25891 1712 ft 164 kts 36°
2026-05-05 17:49 49.95237 7.26760 1674 ft 141 kts 32°
2026-05-05 17:50 49.95880 7.27532 1785 ft 97 kts 76°
2026-05-05 17:50 49.96094 7.27575 1802 ft 54 kts 207°
2026-05-05 17:50 49.95774 7.27285 1672 ft 51 kts 215°
2026-05-05 17:50 49.95517 7.27033 1630 ft 34 kts 215°
2026-05-05 17:51 49.95382 7.26938 1632 ft 16 kts 175°
2026-05-05 17:52 49.93406 7.24944 1666 ft 0 kts 32°
2026-05-05 17:52 49.93414 7.24952 1674 ft 11 kts 32°
2026-05-05 17:53 49.93603 7.25139 1676 ft 54 kts 34°
2026-05-05 17:53 49.94051 7.25581 1716 ft 90 kts 30°
2026-05-05 17:53 49.94610 7.26143 1938 ft 101 kts 30°
2026-05-05 17:53 49.95220 7.26768 2209 ft 107 kts 32°
2026-05-05 17:54 49.95842 7.27406 2529 ft 107 kts 32°
2026-05-05 17:54 49.96454 7.28034 2860 ft 104 kts 32°
2026-05-05 17:54 49.97052 7.28639 3198 ft 101 kts 33°
2026-05-05 17:54 49.97687 7.28930 3489 ft 96 kts 348°
2026-05-05 17:55 49.98117 7.28262 3766 ft 90 kts 278°
2026-05-05 17:55 49.97864 7.27460 4032 ft 87 kts 214°
2026-05-05 17:55 49.97350 7.26978 4317 ft 87 kts 211°
2026-05-05 17:55 49.96830 7.26490 4587 ft 88 kts 211°
2026-05-05 17:56 49.96289 7.25974 4718 ft 99 kts 216°
2026-05-05 17:56 49.95714 7.25360 4706 ft 99 kts 212°
2026-05-05 17:56 49.95233 7.24776 4799 ft 71 kts 239°
2026-05-05 17:56 49.94887 7.24246 4564 ft 89 kts 214°
2026-05-05 17:57 49.94550 7.23847 4509 ft 58 kts 36°
2026-05-05 17:57 49.93982 7.23051 3513 ft 137 kts 216°
2026-05-05 17:57 49.93242 7.23281 3559 ft 107 kts 131°
2026-05-05 17:57 49.93035 7.23984 3463 ft 106 kts 114°